CW5020 Weather Reports


Display with metric or nautical units.
time (UTC)temp
F
wind
direction
speed
MPH
gust
MPH
rain 1hr
in
rain 24hr
in
rain mn
in
humidity
%
barometer
mb
20260905214008 81 273 0.0 4.0 0.00 0.00 0.00 70 1014.6
20260905213503 81 53 0.0 4.0 0.00 0.00 0.00 72 1014.6
20260905213006 81 288 0.0 4.0 0.00 0.00 0.00 74 1014.6
20260905212503 80 57 1.0 4.0 0.00 0.00 0.00 73 1014.5
20260905212006 80 42 1.0 4.0 0.00 0.00 0.00 73 1014.5
20260905211504 80 59 1.0 5.0 0.00 0.00 0.00 74 1014.6
20260905211005 80 24 1.0 5.0 0.00 0.00 0.00 73 1014.4
20260905210503 80 59 1.0 4.0 0.00 0.00 0.00 73 1014.5
20260905210005 80 68 0.0 3.0 0.00 0.00 0.00 74 1014.5
20260905205503 80 34 0.0 3.0 0.00 0.00 0.00 75 1014.6
20260905205006 80 49 1.0 3.0 0.00 0.00 0.00 75 1014.7
20260905204503 80 49 1.0 5.0 0.00 0.00 0.00 75 1014.8
20260905204005 79 46 1.0 5.0 0.00 0.00 0.00 77 1014.8
20260905203506 78 286 0.0 4.0 0.00 0.00 0.00 78 1014.7
20260905203006 78 37 0.0 2.0 0.00 0.00 0.00 80 1014.9
20260905202004 77 45 2.0 6.0 0.00 0.00 0.00 79 1014.9
20260905201504 77 38 1.0 6.0 0.00 0.00 0.00 79 1014.9
20260905201007 78 39 1.0 6.0 0.00 0.00 0.00 79 1015.0
20260905200503 78 5 1.0 4.0 0.00 0.00 0.00 79 1015.0
20260905195004 78 34 1.0 5.0 0.00 0.00 0.00 79 1014.9
20260905194504 78 36 2.0 8.0 0.00 0.00 0.00 79 1015.0
20260905193504 78 10 1.0 5.0 0.00 0.00 0.00 79 1015.0
20260905193006 78 53 1.0 5.0 0.00 0.00 0.00 79 1015.1
20260905192503 78 32 1.0 6.0 0.00 0.00 0.00 79 1015.2
20260905192006 78 37 2.0 6.0 0.00 0.00 0.00 79 1015.1
20260905191504 78 37 1.0 4.0 0.00 0.00 0.00 80 1015.2
20260905190503 78 355 2.0 6.0 0.00 0.00 0.00 79 1015.2
20260905190004 78 14 1.0 5.0 0.00 0.00 0.00 79 1015.3
20260905185502 78 51 1.0 6.0 0.00 0.00 0.00 79 1015.2
20260905185005 78 12 2.0 6.0 0.00 0.00 0.00 79 1015.2
20260905184004 79 32 1.0 6.0 0.00 0.00 0.00 78 1015.2
20260905183003 79 50 1.0 5.0 0.00 0.00 0.00 78 1015.3
20260905181503 79 53 2.0 6.0 0.00 0.00 0.00 77 1015.3
20260905181006 80 279 1.0 5.0 0.00 0.00 0.00 77 1015.2
20260905180008 80 61 2.0 5.0 0.00 0.00 0.00 77 1015.2
20260905175504 80 70 2.0 5.0 0.00 0.00 0.00 76 1015.2
20260905175005 80 340 2.0 11.0 0.00 0.00 0.00 77 1015.2
20260905174506 80 21 2.0 11.0 0.00 0.00 0.00 76 1015.1
20260905173505 80 38 2.0 8.0 0.00 0.00 0.00 76 1015.0
20260905172504 80 24 1.0 4.0 0.00 0.00 0.00 76 1015.0
20260905172005 80 67 1.0 4.0 0.00 0.00 0.00 76 1015.0
20260905171504 80 55 1.0 4.0 0.00 0.00 0.00 78 1015.0
20260905171005 80 38 1.0 6.0 0.00 0.00 0.00 78 1015.0
20260905170503 80 56 1.0 4.0 0.00 0.00 0.00 77 1015.1
20260905170006 80 31 1.0 6.0 0.00 0.00 0.00 78 1015.1
20260905165503 80 275 1.0 6.0 0.00 0.00 0.00 78 1015.3
20260905165005 80 298 1.0 6.0 0.00 0.00 0.00 78 1015.2
20260905164503 80 13 1.0 6.0 0.00 0.00 0.00 77 1015.2
20260905163504 81 51 1.0 9.0 0.00 0.00 0.00 76 1015.2
20260905162504 81 63 1.0 4.0 0.00 0.00 0.00 76 1015.1
20260905162004 81 71 1.0 4.0 0.00 0.00 0.00 76 1015.1
20260905161504 81 55 1.0 4.0 0.00 0.00 0.00 75 1015.2
20260905160504 81 80 1.0 6.0 0.00 0.00 0.00 75 1015.1
20260905155506 82 48 0.0 2.0 0.00 0.00 0.00 75 1015.1
20260905154506 81 54 1.0 4.0 0.00 0.00 0.00 78 1014.9
20260905154006 80 53 1.0 4.0 0.00 0.00 0.00 77 1014.9
20260905153506 80 75 1.0 4.0 0.00 0.00 0.00 77 1015.0
20260905153004 80 49 1.0 4.0 0.00 0.00 0.00 78 1014.8
20260905152504 80 46 1.0 4.0 0.00 0.00 0.00 79 1014.8
20260905152005 79 48 0.0 3.0 0.00 0.00 0.00 80 1014.7
20260905151505 79 60 1.0 4.0 0.00 0.00 0.00 81 1014.7
20260905151006 78 63 1.0 5.0 0.00 0.00 0.00 82 1014.7
20260905150503 78 46 1.0 5.0 0.00 0.00 0.00 81 1014.7
20260905150007 78 61 0.0 3.0 0.00 0.00 0.00 81 1014.6
20260905145504 78 18 1.0 3.0 0.00 0.00 0.00 81 1014.6
20260905145005 78 49 1.0 4.0 0.00 0.00 0.00 82 1014.6
20260905144503 77 42 0.0 4.0 0.00 0.00 0.00 82 1014.6
20260905144005 77 57 0.0 3.0 0.00 0.00 0.00 82 1014.6
20260905143503 77 42 1.0 6.0 0.00 0.00 0.00 82 1014.6
20260905143004 77 5 1.0 6.0 0.00 0.00 0.00 83 1014.6
20260905142503 77 34 1.0 6.0 0.00 0.00 0.00 83 1014.5
20260905142005 77 44 1.0 6.0 0.00 0.00 0.00 84 1014.5
20260905141503 76 51 0.0 3.0 0.00 0.00 0.00 85 1014.3
20260905141005 76 43 1.0 5.0 0.00 0.00 0.00 86 1014.4
20260905140007 75 20 1.0 4.0 0.00 0.00 0.00 87 1014.2
20260905134503 74 34 1.0 5.0 0.00 0.00 0.00 88 1014.3
20260905134004 74 26 1.0 3.0 0.00 0.00 0.00 90 1014.3
20260905133503 74 20 1.0 9.0 0.00 0.00 0.00 89 1014.5
20260905133004 74 19 1.0 9.0 0.00 0.00 0.00 89 1014.5
20260905132503 74 55 1.0 3.0 0.00 0.00 0.00 90 1014.6
20260905132007 74 59 1.0 4.0 0.00 0.00 0.00 90 1014.7
20260905131505 74 26 1.0 4.0 0.00 0.00 0.00 89 1014.6
20260905131004 74 28 1.0 4.0 0.00 0.00 0.00 89 1014.3
20260905130505 74 69 0.0 3.0 0.00 0.00 0.00 90 1014.2
20260905130004 74 45 0.0 3.0 0.00 0.00 0.00 90 1014.0
20260905125506 74 59 1.0 4.0 0.00 0.00 0.00 90 1014.0
20260905125005 74 40 1.0 4.0 0.00 0.00 0.00 90 1013.8
20260905124503 74 15 0.0 3.0 0.00 0.00 0.00 90 1013.8
20260905124008 74 56 0.0 2.0 0.00 0.00 0.00 90 1013.8
20260905123503 74 53 0.0 2.0 0.00 0.00 0.00 90 1013.7
20260905123005 74 54 0.0 2.0 0.00 0.00 0.00 90 1013.7
20260905122503 74 51 0.0 2.0 0.00 0.00 0.00 90 1013.6
20260905122005 74 51 0.0 2.0 0.00 0.00 0.00 90 1013.5
20260905121506 74 55 0.0 2.0 0.00 0.00 0.00 90 1013.7
20260905121009 74 53 1.0 2.0 0.00 0.00 0.00 90 1013.6
20260905120506 75 42 0.0 2.0 0.00 0.00 0.00 90 1013.5
20260905120006 75 33 0.0 2.0 0.00 0.00 0.00 90 1013.4
20260905115505 75 15 0.0 1.0 0.00 0.00 0.00 90 1013.5
20260905115007 75 336 0.0 1.0 0.00 0.00 0.00 90 1013.4
20260905114006 75 334 0.0 3.0 0.00 0.00 0.00 90 1013.1
20260905113003 75 245 0.0 1.0 0.00 0.00 0.00 89 1012.8
20260905112502 75 245 0.0 0.0 0.00 0.00 0.00 89 1013.0
20260905112008 75 245 0.0 0.0 0.00 0.00 0.00 89 1012.8
20260905111503 75 245 0.0 0.0 0.00 0.00 0.00 89 1012.6
20260905111003 75 245 0.0 0.0 0.00 0.00 0.00 89 1012.6
20260905110503 75 245 0.0 0.0 0.00 0.00 0.00 89 1012.5
20260905110008 75 245 0.0 1.0 0.00 0.00 0.00 88 1012.6
20260905105503 75 245 0.0 1.0 0.00 0.00 0.00 88 1012.5
20260905104504 76 245 0.0 1.0 0.00 0.00 0.00 88 1012.5
20260905104005 76 245 0.0 1.0 0.00 0.00 0.00 88 1012.5
20260905103504 76 245 0.0 1.0 0.00 0.00 0.00 89 1012.6
20260905103007 76 245 0.0 1.0 0.00 0.00 0.00 89 1012.6
20260905102503 76 244 0.0 0.0 0.00 0.00 0.00 90 1012.6
20260905101006 76 244 0.0 0.0 0.00 0.00 0.00 89 1012.4
20260905100504 76 244 0.0 0.0 0.00 0.00 0.00 89 1012.4
20260905100007 76 244 0.0 0.0 0.00 0.00 0.00 89 1012.4
20260905095504 76 244 0.0 0.0 0.00 0.00 0.00 89 1012.5
20260905093003 76 244 0.0 0.0 0.00 0.00 0.00 89 1012.4
20260905092502 76 244 0.0 0.0 0.00 0.00 0.00 89 1012.5
20260905092004 76 244 0.0 0.0 0.00 0.00 0.00 89 1012.5
20260905091503 76 244 0.0 0.0 0.00 0.00 0.00 88 1012.4
20260905091003 76 244 0.0 0.0 0.00 0.00 0.00 88 1012.4
20260905090502 76 244 0.0 0.0 0.00 0.00 0.00 88 1012.4
20260905090005 76 244 0.0 0.0 0.00 0.00 0.00 88 1012.3
20260905085503 76 244 0.0 0.0 0.00 0.00 0.00 88 1012.4
20260905084505 76 244 0.0 0.0 0.00 0.00 0.00 88 1012.4
20260905084003 76 244 0.0 0.0 0.00 0.00 0.00 87 1012.4
20260905083503 76 244 0.0 0.0 0.00 0.00 0.00 87 1012.3
20260905083004 76 244 0.0 0.0 0.00 0.00 0.00 87 1012.4
20260905082503 76 244 0.0 0.0 0.00 0.00 0.00 87 1012.4
20260905081503 76 244 0.0 0.0 0.00 0.00 0.00 87 1012.4
20260905081006 76 244 0.0 0.0 0.00 0.00 0.00 87 1012.3
20260905080503 76 244 0.0 0.0 0.00 0.00 0.00 87 1012.4
20260905080007 76 244 0.0 0.0 0.00 0.00 0.00 86 1012.3
20260905075502 76 244 0.0 0.0 0.00 0.00 0.00 86 1012.3
20260905075004 76 244 0.0 0.0 0.00 0.00 0.00 86 1012.3
20260905074502 77 244 0.0 0.0 0.00 0.00 0.00 86 1012.3
20260905074004 77 244 0.0 0.0 0.00 0.00 0.00 85 1012.3
20260905072006 77 244 0.0 0.0 0.00 0.00 0.00 85 1012.4
20260905070502 77 244 0.0 0.0 0.00 0.00 0.00 85 1012.6
20260905070007 77 244 0.0 0.0 0.00 0.00 0.00 85 1012.6
20260905065503 77 244 0.0 0.0 0.00 0.00 0.00 84 1012.6
20260905065003 77 244 0.0 0.0 0.00 0.00 0.00 84 1012.6
20260905064503 78 244 0.0 0.0 0.00 0.00 0.00 84 1012.6
20260905063007 78 244 0.0 0.0 0.00 0.00 0.00 84 1012.8
20260905062502 78 244 0.0 0.0 0.00 0.00 0.00 83 1012.9
20260905062004 78 244 0.0 0.0 0.00 0.00 0.00 83 1012.9
20260905061503 78 244 0.0 0.0 0.00 0.00 0.00 82 1012.8
20260905061004 78 244 0.0 0.0 0.00 0.00 0.00 82 1012.8
20260905060502 78 244 0.0 0.0 0.00 0.00 0.00 82 1012.8
20260905060003 79 244 0.0 0.0 0.00 0.00 0.00 82 1012.9
20260905055502 79 244 0.0 0.0 0.00 0.00 0.00 81 1012.9
20260905054505 79 244 0.0 0.0 0.00 0.00 0.00 81 1013.0
20260905054005 79 244 0.0 0.0 0.00 0.00 0.00 81 1013.0
20260905053502 79 244 0.0 0.0 0.00 0.00 0.00 80 1012.9
20260905052502 79 244 0.0 0.0 0.00 0.00 0.00 80 1012.9
20260905052006 79 244 0.0 0.0 0.00 0.00 0.00 80 1012.8
20260905051502 79 244 0.0 0.0 0.00 0.00 0.00 80 1012.8
20260905051004 80 244 0.0 0.0 0.00 0.00 0.00 80 1012.8
20260905050505 80 244 0.0 0.0 0.00 0.00 0.00 80 1012.7
20260905050007 80 244 0.0 0.0 0.00 0.00 0.00 79 1012.8
20260905045504 80 244 0.0 0.0 0.00 0.00 0.00 79 1013.0
20260905044504 81 244 0.0 1.0 0.00 0.00 0.00 78 1012.8
20260905044007 81 244 0.0 2.0 0.00 0.00 0.00 78 1012.9
20260905043504 81 244 0.0 1.0 0.00 0.00 0.00 77 1013.1
20260905043008 82 244 0.0 1.0 0.00 0.00 0.00 77 1013.1
20260905042504 82 243 0.0 1.0 0.00 0.00 0.00 77 1013.0
20260905042006 82 243 0.0 0.0 0.00 0.00 0.00 77 1013.0
20260905041504 83 243 0.0 0.0 0.00 0.00 0.00 76 1012.9
20260905041006 83 243 0.0 0.0 0.00 0.00 0.00 76 1012.9
20260905040504 83 243 0.0 1.0 0.00 0.00 0.00 76 1012.8
20260905040008 84 243 0.0 1.0 0.00 0.00 0.00 76 1012.8
20260905035504 84 242 0.0 0.0 0.00 0.00 0.00 76 1012.8
20260905035006 84 242 0.0 0.0 0.00 0.00 0.00 76 1012.7
20260905034504 84 242 0.0 0.0 0.00 0.00 0.00 76 1012.6
20260905034006 83 242 0.0 1.0 0.00 0.00 0.00 77 1012.6
20260905033005 82 242 0.0 1.0 0.00 0.00 0.00 79 1013.1
20260905032504 82 242 0.0 0.0 0.00 0.00 0.00 79 1013.3
20260905032007 82 242 0.0 0.0 0.00 0.00 0.00 80 1013.2
20260905031504 82 242 0.0 0.0 0.00 0.00 0.00 80 1013.2
20260905031005 82 242 0.0 0.0 0.00 0.00 0.00 80 1013.3
20260905030504 82 242 0.0 0.0 0.00 0.00 0.00 79 1013.4
20260905030009 82 242 0.0 0.0 0.00 0.00 0.00 79 1013.4
20260905025504 82 242 0.0 0.0 0.00 0.00 0.00 79 1013.5
20260905025005 83 242 0.0 0.0 0.00 0.00 0.00 79 1013.5
20260905024504 83 242 0.0 0.0 0.00 0.00 0.00 79 1013.5
20260905024006 83 242 0.0 0.0 0.00 0.00 0.00 78 1013.5
20260905023503 83 242 0.0 0.0 0.00 0.00 0.00 79 1013.3
20260905023007 83 242 0.0 0.0 0.00 0.00 0.00 78 1013.3
20260905022504 83 242 0.0 0.0 0.00 0.00 0.00 78 1013.3
20260905022006 83 242 0.0 0.0 0.00 0.00 0.00 78 1013.3
20260905021503 83 242 0.0 0.0 0.00 0.00 0.00 78 1013.2
20260905021005 83 242 0.0 0.0 0.00 0.00 0.00 78 1013.2
20260905020006 84 242 0.0 0.0 0.00 0.00 0.00 77 1013.2
20260905015504 84 242 0.0 0.0 0.00 0.00 0.00 76 1013.1
20260905015006 84 242 0.0 0.0 0.00 0.00 0.00 76 1013.1
20260905014503 84 242 0.0 0.0 0.00 0.00 0.00 75 1013.1
20260905014006 84 242 0.0 0.0 0.00 0.00 0.00 75 1012.8
20260905013008 85 242 0.0 0.0 0.00 0.00 0.00 74 1012.6
20260905012503 85 242 0.0 0.0 0.00 0.00 0.00 73 1012.7
20260905012006 85 242 0.0 0.0 0.00 0.00 0.00 73 1012.6
20260905010504 86 242 0.0 0.0 0.00 0.00 0.00 71 1012.5
20260905010008 86 242 0.0 0.0 0.00 0.00 0.00 71 1012.5
20260905005504 86 242 0.0 0.0 0.00 0.00 0.00 70 1012.3
20260905005004 87 242 0.0 0.0 0.00 0.00 0.00 69 1012.4
20260905004504 87 242 0.0 0.0 0.00 0.00 0.00 69 1012.5
20260905003503 87 242 0.0 1.0 0.00 0.00 0.00 68 1012.4
20260905003005 88 242 0.0 1.0 0.00 0.00 0.00 67 1012.5
20260905002503 88 242 0.0 3.0 0.00 0.00 0.00 67 1012.5
20260905002006 88 243 0.0 3.0 0.00 0.00 0.00 67 1012.3
20260905001504 88 238 0.0 2.0 0.00 0.00 0.00 67 1012.2
20260905001005 88 238 0.0 1.0 0.00 0.00 0.00 67 1012.1
20260905000503 88 237 0.0 2.0 0.00 0.00 0.00 67 1012.3
20260905000007 88 236 0.0 1.0 0.00 0.00 0.00 66 1012.2
20260904235005 89 236 0.0 2.0 0.00 0.00 0.00 65 1012.3
20260904233505 89 236 1.0 3.0 0.00 0.00 0.00 65 1012.3
20260904233007 89 226 1.0 3.0 0.00 0.00 0.00 64 1012.2
20260904232503 90 267 0.0 3.0 0.00 0.00 0.00 65 1012.4
20260904232005 90 252 0.0 3.0 0.00 0.00 0.00 65 1012.4
20260904231503 90 256 0.0 3.0 0.00 0.00 0.00 64 1012.5
20260904231005 90 256 0.0 3.0 0.00 0.00 0.00 64 1012.5
20260904230504 90 243 0.0 3.0 0.00 0.00 0.00 63 1012.6
20260904230007 90 242 1.0 3.0 0.00 0.00 0.00 63 1012.5
20260904225504 91 271 1.0 3.0 0.00 0.00 0.00 62 1012.5
20260904225006 91 265 1.0 4.0 0.00 0.00 0.00 62 1012.5
20260904224504 91 273 0.0 4.0 0.00 0.00 0.00 62 1012.5
20260904223504 91 246 0.0 4.0 0.00 0.00 0.00 61 1012.5
20260904222503 92 245 1.0 6.0 0.00 0.00 0.00 60 1012.6
20260904222005 92 278 0.0 3.0 0.00 0.00 0.00 59 1012.6
20260904221505 93 222 1.0 5.0 0.00 0.00 0.00 58 1012.6
20260904220509 94 238 1.0 4.0 0.00 0.00 0.00 57 1012.5
20260904220009 93 209 1.0 4.0 0.00 0.00 0.00 56 1012.6
20260904215006 93 240 1.0 5.0 0.00 0.00 0.00 57 1012.4
20260904214504 93 239 1.0 5.0 0.00 0.00 0.00 56 1012.4